Location: Gro� Glienicke
(52.4675°N, 13.1079°E)
Time: 02:55:47
(UTC+00:00)

APEX - Pass Details

Date: 06 July 2020
Orbit: 333 x 1108 km, 69.9° (Epoch: 04 August)

Event Time Altitude Azimuth Distance (km) Brightness Sun altitude
Rises 22:46:17 0° 324° (NW) 2,153 7.5 -14.8°
Reaches altitude 10° 22:48:17 10° 320° (NW) 1,285 6.1 -14.8°
Maximum altitude 22:50:58 57° 241° (WSW) 406 2.5 -14.8°
Enters shadow 22:51:36 42° 188° (S) 499 2.6 -14.8°
